EN

Hourly Weather Paradni

Today, 28 February, Sunday

Time Temperature Precipitation Wind Pressure Humidity
00:00 -1°C° 0 mm 3 mps 754 mmHg 92%
01:00 -1°C° 0 mm 3 mps 754 mmHg 91%
02:00 -1°C° 0 mm 3 mps 754 mmHg 92%
03:00 -1°C° 0 mm 3 mps 754 mmHg 91%
04:00 -3°C° 0 mm 4 mps 754 mmHg 91%
05:00 -3°C° 0 mm 4 mps 753 mmHg 91%
06:00 -3°C° 0.1 mm 4 mps 753 mmHg 92%
07:00 -3°C° 0.1 mm 4 mps 753 mmHg 94%
08:00 -2°C° 0 mm 4 mps 752 mmHg 94%
09:00 -1°C° 0.6 mm 5 mps 752 mmHg 94%
10:00 -1°C° 0.6 mm 5 mps 751 mmHg 94%
11:00 0°C° 0.6 mm 5 mps 751 mmHg 94%
12:00 0°C° 0.2 mm 5 mps 751 mmHg 95%
13:00 0°C° 0.2 mm 5 mps 751 mmHg 96%
14:00 0°C° 0 mm 5 mps 751 mmHg 97%
15:00 0°C° 0.2 mm 4 mps 751 mmHg 97%
16:00 0°C° 0.2 mm 4 mps 751 mmHg 97%
17:00 +1°C° 0.2 mm 3 mps 751 mmHg 97%
18:00 +1°C° 0.1 mm 3 mps 752 mmHg 97%
19:00 +1°C° 0.1 mm 3 mps 752 mmHg 96%
20:00 +2°C° 0.1 mm 2 mps 753 mmHg 96%
21:00 +2°C° 0 mm 2 mps 754 mmHg 96%
22:00 +1°C° 0 mm 2 mps 754 mmHg 96%
23:00 +1°C° 0 mm 2 mps 755 mmHg 96%

Tomorrow, 1 March, Monday

Time Temperature Precipitation Wind Pressure Humidity
00:00 +1°C° 0 mm 2 mps 755 mmHg 96%
01:00 +1°C° 0 mm 2 mps 756 mmHg 96%
02:00 +1°C° 0 mm 2 mps 757 mmHg 95%
03:00 -1°C° 0 mm 2 mps 757 mmHg 95%
04:00 -1°C° 0 mm 2 mps 757 mmHg 95%
05:00 -1°C° 0 mm 2 mps 757 mmHg 95%
06:00 -1°C° 0 mm 2 mps 757 mmHg 95%
07:00 -1°C° 0 mm 2 mps 757 mmHg 95%
08:00 -1°C° 0 mm 2 mps 758 mmHg 95%
09:00 0°C° 0 mm 3 mps 758 mmHg 92%
10:00 +1°C° 0 mm 3 mps 758 mmHg 89%
11:00 +1°C° 0 mm 4 mps 758 mmHg 86%
12:00 +3°C° 0 mm 4 mps 757 mmHg 85%
13:00 +3°C° 0 mm 4 mps 757 mmHg 85%
14:00 +4°C° 0 mm 4 mps 757 mmHg 84%
15:00 +4°C° 0 mm 4 mps 757 mmHg 86%
16:00 +3°C° 0 mm 4 mps 756 mmHg 88%
17:00 +3°C° 0 mm 3 mps 756 mmHg 89%
18:00 +3°C° 0 mm 4 mps 756 mmHg 90%
19:00 +1°C° 0 mm 4 mps 755 mmHg 90%
20:00 +1°C° 0 mm 5 mps 755 mmHg 91%
21:00 +1°C° 0 mm 5 mps 754 mmHg 90%
22:00 +1°C° 0 mm 5 mps 754 mmHg 90%
23:00 +1°C° 0 mm 6 mps 753 mmHg 90%

Day after tomorrow, 2 March, Tuesday

Time Temperature Precipitation Wind Pressure Humidity
00:00 +1°C° 0 mm 5 mps 753 mmHg 90%
01:00 0°C° 0 mm 5 mps 753 mmHg 90%
02:00 0°C° 0 mm 5 mps 753 mmHg 90%
03:00 0°C° 0 mm 5 mps 752 mmHg 90%
04:00 0°C° 0 mm 5 mps 752 mmHg 90%
05:00 -1°C° 0 mm 4 mps 751 mmHg 91%
06:00 -1°C° 0 mm 4 mps 751 mmHg 91%
07:00 -1°C° 0 mm 4 mps 751 mmHg 91%
08:00 -1°C° 0 mm 4 mps 751 mmHg 91%
09:00 0°C° 0 mm 5 mps 751 mmHg 88%
10:00 +1°C° 0 mm 5 mps 751 mmHg 85%
11:00 +2°C° 0 mm 6 mps 750 mmHg 83%
12:00 +2°C° 0 mm 6 mps 750 mmHg 81%
13:00 +3°C° 0 mm 6 mps 751 mmHg 79%
14:00 +3°C° 0 mm 7 mps 751 mmHg 77%
15:00 +3°C° 0 mm 6 mps 751 mmHg 75%
16:00 +2°C° 0 mm 6 mps 751 mmHg 73%
17:00 +2°C° 0 mm 5 mps 752 mmHg 71%
18:00 +1°C° 0 mm 5 mps 752 mmHg 73%
19:00 +1°C° 0 mm 5 mps 753 mmHg 76%
20:00 0°C° 0 mm 5 mps 754 mmHg 79%
21:00 -1°C° 0 mm 5 mps 754 mmHg 80%
22:00 -1°C° 0 mm 4 mps 755 mmHg 82%
23:00 -2°C° 0 mm 4 mps 755 mmHg 84%

3 March, Wednesday

Time Temperature Precipitation Wind Pressure Humidity
00:00 -2°C° 0 mm 4 mps 756 mmHg 86%
01:00 -3°C° 0 mm 4 mps 756 mmHg 87%
02:00 -2°C° 0 mm 3 mps 756 mmHg 89%
03:00 -3°C° 0 mm 4 mps 756 mmHg 89%
04:00 -3°C° 0 mm 4 mps 756 mmHg 90%
05:00 -3°C° 0 mm 4 mps 756 mmHg 90%
06:00 -3°C° 0 mm 4 mps 756 mmHg 88%
07:00 -3°C° 0 mm 4 mps 756 mmHg 86%
08:00 -3°C° 0 mm 4 mps 757 mmHg 85%
09:00 -2°C° 0 mm 4 mps 756 mmHg 79%
10:00 0°C° 0 mm 5 mps 756 mmHg 74%
11:00 +1°C° 0 mm 5 mps 756 mmHg 68%
12:00 +1°C° 0 mm 5 mps 755 mmHg 66%
13:00 +2°C° 0 mm 5 mps 755 mmHg 63%
14:00 +3°C° 0 mm 5 mps 755 mmHg 60%
15:00 +3°C° 0 mm 4 mps 754 mmHg 63%
16:00 +3°C° 0 mm 4 mps 753 mmHg 66%
17:00 +1°C° 0 mm 4 mps 753 mmHg 69%
18:00 0°C° 0 mm 4 mps 752 mmHg 71%
19:00 0°C° 0 mm 4 mps 752 mmHg 74%
20:00 -1°C° 0 mm 4 mps 751 mmHg 76%
21:00 -1°C° 0 mm 4 mps 750 mmHg 75%
22:00 -1°C° 0 mm 5 mps 750 mmHg 73%
23:00 -1°C° 0 mm 5 mps 749 mmHg 71%

4 March, Thursday

Time Temperature Precipitation Wind Pressure Humidity
00:00 -1°C° 0 mm 5 mps 748 mmHg 72%
01:00 -2°C° 0 mm 6 mps 747 mmHg 72%
02:00 -2°C° 0 mm 6 mps 746 mmHg 73%
03:00 -2°C° 0 mm 5 mps 745 mmHg 78%
04:00 -2°C° 0 mm 5 mps 744 mmHg 82%
05:00 -2°C° 0 mm 4 mps 744 mmHg 86%
06:00 -2°C° 0 mm 5 mps 743 mmHg 87%
07:00 -1°C° 0 mm 5 mps 742 mmHg 88%
08:00 -1°C° 0 mm 5 mps 742 mmHg 89%
09:00 -1°C° 0 mm 5 mps 742 mmHg 89%
10:00 -1°C° 0 mm 4 mps 741 mmHg 89%
11:00 0°C° 0 mm 4 mps 741 mmHg 88%
12:00 0°C° 0 mm 4 mps 741 mmHg 90%
13:00 -1°C° 0 mm 4 mps 741 mmHg 91%
14:00 -1°C° 0 mm 4 mps 741 mmHg 93%
15:00 -1°C° 0.1 mm 4 mps 742 mmHg 88%
16:00 -1°C° 0.1 mm 4 mps 742 mmHg 82%
17:00 0°C° 0.1 mm 3 mps 742 mmHg 77%
18:00 -1°C° 0 mm 3 mps 742 mmHg 77%
19:00 -2°C° 0 mm 2 mps 742 mmHg 76%
20:00 -3°C° 0 mm 2 mps 743 mmHg 75%
21:00 -3°C° 0 mm 2 mps 743 mmHg 75%
22:00 -2°C° 0 mm 1 mps 743 mmHg 75%
23:00 -2°C° 0 mm 1 mps 743 mmHg 76%

5 March, Friday

Time Temperature Precipitation Wind Pressure Humidity
00:00 -2°C° 0 mm 1 mps 743 mmHg 76%
01:00 -3°C° 0 mm 0 mps 743 mmHg 76%
02:00 -3°C° 0 mm 0 mps 743 mmHg 76%
03:00 -3°C° 0 mm 0 mps 743 mmHg 76%
04:00 -2°C° 0 mm 1 mps 743 mmHg 76%
05:00 -2°C° 0 mm 1 mps 743 mmHg 77%
06:00 -2°C° 0 mm 1 mps 743 mmHg 77%
07:00 -4°C° 0 mm 2 mps 743 mmHg 77%
08:00 -4°C° 0 mm 2 mps 743 mmHg 78%
09:00 -4°C° 0 mm 2 mps 743 mmHg 73%
10:00 -3°C° 0 mm 2 mps 744 mmHg 68%
11:00 -2°C° 0 mm 3 mps 744 mmHg 63%
12:00 -2°C° 0 mm 3 mps 744 mmHg 57%
13:00 -2°C° 0 mm 3 mps 744 mmHg 51%
14:00 -1°C° 0 mm 3 mps 744 mmHg 45%
15:00 -2°C° 0 mm 3 mps 744 mmHg 48%
16:00 -2°C° 0 mm 3 mps 745 mmHg 50%
17:00 -2°C° 0 mm 3 mps 745 mmHg 53%
18:00 -4°C° 0.1 mm 4 mps 745 mmHg 64%
19:00 -6°C° 0.1 mm 5 mps 746 mmHg 74%
20:00 -7°C° 0.1 mm 5 mps 746 mmHg 84%
21:00 -8°C° 0.3 mm 6 mps 747 mmHg 82%
22:00 -8°C° 0.3 mm 6 mps 747 mmHg 79%
23:00 -8°C° 0.3 mm 6 mps 747 mmHg 77%
Show more

We Need Your Consent

Meteoprog and our Service Providers may store and access personal data such as cookies, device identifiers or other similar technologies on your device and process such data to personalise content and ads, as well as provide social media features and to analyse the traffic.

  • Store and/or access information on your device

    Cookies, device identifiers or other information can be stored or accessed on your device for the purposes indicated above.

  • Personalised ads and content, ad and content measurement, audience insights, and products development

    Ads and content can be personalised based on a profile. More data can be added to better personalise ads and content. Ad and content performance can be measured. Insights about the audience who saw the ads and content can be derived. Such data can be used to develop or improve user’s experience, systems and software.

By clicking ‘I Agree’ you will allow the use of indicated cookies, device identifiers, web beacons or other similar technologies. Your settings can be changed in the browser on your device.

For certain purposes, legitimate interests may be relied on, rather than consent. You can read more about this in our Privacy and Cookie Policy.